• In Hungary
  • List of Countries
  • For 7 days
  • Water Temperature
  • Satellite Maps
  • Weather Map
  • News
  • Weather Widgets
  • user-avatar
    Login

    Hourly Weather Asuan

    Today, 20 September, Wednesday

    Time Temperature Precipitation Wind Pressure Humidity
    00:00 +34°C° 0 mm 3 mps 742 mmHg 20%
    01:00 +33°C° 0 mm 3 mps 742 mmHg 21%
    02:00 +31°C° 0 mm 3 mps 742 mmHg 23%
    03:00 +31°C° 0 mm 3 mps 742 mmHg 24%
    04:00 +31°C° 0 mm 3 mps 742 mmHg 25%
    05:00 +30°C° 0 mm 3 mps 742 mmHg 27%
    06:00 +31°C° 0 mm 3 mps 742 mmHg 25%
    07:00 +34°C° 0 mm 3 mps 742 mmHg 24%
    08:00 +35°C° 0 mm 3 mps 742 mmHg 23%
    09:00 +36°C° 0 mm 2 mps 742 mmHg 21%
    10:00 +37°C° 0 mm 2 mps 742 mmHg 19%
    11:00 +39°C° 0 mm 2 mps 742 mmHg 17%
    12:00 +40°C° 0 mm 2 mps 742 mmHg 16%
    13:00 +42°C° 0 mm 3 mps 741 mmHg 14%
    14:00 +43°C° 0 mm 3 mps 740 mmHg 12%
    15:00 +43°C° 0 mm 3 mps 740 mmHg 12%
    16:00 +42°C° 0 mm 4 mps 740 mmHg 12%
    17:00 +42°C° 0 mm 4 mps 740 mmHg 12%
    18:00 +41°C° 0 mm 4 mps 740 mmHg 14%
    19:00 +38°C° 0 mm 4 mps 741 mmHg 15%
    20:00 +37°C° 0 mm 4 mps 741 mmHg 17%
    21:00 +36°C° 0 mm 4 mps 741 mmHg 18%
    22:00 +36°C° 0 mm 4 mps 742 mmHg 20%
    23:00 +35°C° 0 mm 4 mps 742 mmHg 21%

    Tomorrow, 21 September, Thursday

    Time Temperature Precipitation Wind Pressure Humidity
    00:00 +35°C° 0 mm 4 mps 742 mmHg 23%
    01:00 +34°C° 0 mm 4 mps 742 mmHg 24%
    02:00 +33°C° 0 mm 4 mps 742 mmHg 26%
    03:00 +33°C° 0 mm 4 mps 742 mmHg 27%
    04:00 +32°C° 0 mm 4 mps 741 mmHg 29%
    05:00 +32°C° 0 mm 4 mps 741 mmHg 30%
    06:00 +33°C° 0 mm 4 mps 742 mmHg 28%
    07:00 +34°C° 0 mm 4 mps 742 mmHg 26%
    08:00 +36°C° 0 mm 4 mps 742 mmHg 23%
    09:00 +37°C° 0 mm 4 mps 742 mmHg 21%
    10:00 +40°C° 0 mm 4 mps 742 mmHg 18%
    11:00 +40°C° 0 mm 3 mps 741 mmHg 15%
    12:00 +42°C° 0 mm 3 mps 741 mmHg 14%
    13:00 +43°C° 0 mm 3 mps 740 mmHg 12%
    14:00 +43°C° 0 mm 3 mps 739 mmHg 11%
    15:00 +43°C° 0 mm 4 mps 739 mmHg 11%
    16:00 +43°C° 0 mm 4 mps 739 mmHg 11%
    17:00 +42°C° 0 mm 4 mps 739 mmHg 11%
    18:00 +41°C° 0 mm 4 mps 739 mmHg 12%
    19:00 +39°C° 0 mm 3 mps 739 mmHg 14%
    20:00 +37°C° 0 mm 3 mps 740 mmHg 15%
    21:00 +36°C° 0 mm 3 mps 740 mmHg 16%
    22:00 +36°C° 0 mm 3 mps 740 mmHg 17%
    23:00 +35°C° 0 mm 2 mps 740 mmHg 17%

    Day after tomorrow, 22 September, Friday

    Time Temperature Precipitation Wind Pressure Humidity
    00:00 +35°C° 0 mm 3 mps 740 mmHg 18%
    01:00 +34°C° 0 mm 3 mps 740 mmHg 19%
    02:00 +33°C° 0 mm 3 mps 740 mmHg 19%
    03:00 +33°C° 0 mm 3 mps 740 mmHg 20%
    04:00 +33°C° 0 mm 3 mps 740 mmHg 21%
    05:00 +32°C° 0 mm 4 mps 740 mmHg 21%
    06:00 +33°C° 0 mm 4 mps 740 mmHg 20%
    07:00 +35°C° 0 mm 4 mps 741 mmHg 18%
    08:00 +36°C° 0 mm 4 mps 741 mmHg 16%
    09:00 +38°C° 0 mm 4 mps 741 mmHg 15%
    10:00 +40°C° 0 mm 4 mps 741 mmHg 14%
    11:00 +41°C° 0 mm 4 mps 741 mmHg 13%
    12:00 +42°C° 0 mm 4 mps 740 mmHg 12%
    13:00 +43°C° 0 mm 4 mps 739 mmHg 11%
    14:00 +43°C° 0 mm 4 mps 739 mmHg 10%
    15:00 +43°C° 0 mm 4 mps 739 mmHg 10%
    16:00 +43°C° 0 mm 4 mps 738 mmHg 10%
    17:00 +42°C° 0 mm 4 mps 738 mmHg 10%
    18:00 +41°C° 0 mm 4 mps 739 mmHg 12%
    19:00 +38°C° 0 mm 4 mps 739 mmHg 13%
    20:00 +37°C° 0 mm 3 mps 740 mmHg 14%
    21:00 +36°C° 0 mm 3 mps 740 mmHg 15%
    22:00 +36°C° 0 mm 2 mps 740 mmHg 15%
    23:00 +35°C° 0 mm 2 mps 741 mmHg 16%

    23 September, Saturday

    Time Temperature Precipitation Wind Pressure Humidity
    00:00 +35°C° 0 mm 3 mps 740 mmHg 17%
    01:00 +34°C° 0 mm 3 mps 740 mmHg 19%
    02:00 +34°C° 0 mm 4 mps 740 mmHg 20%
    03:00 +33°C° 0 mm 4 mps 740 mmHg 23%
    04:00 +32°C° 0 mm 4 mps 741 mmHg 25%
    05:00 +32°C° 0 mm 5 mps 741 mmHg 28%
    06:00 +33°C° 0 mm 5 mps 741 mmHg 28%
    07:00 +34°C° 0 mm 6 mps 742 mmHg 28%
    08:00 +35°C° 0 mm 7 mps 742 mmHg 29%
    09:00 +36°C° 0 mm 7 mps 742 mmHg 25%
    10:00 +39°C° 0 mm 6 mps 742 mmHg 22%
    11:00 +41°C° 0 mm 6 mps 742 mmHg 19%
    12:00 +41°C° 0 mm 6 mps 741 mmHg 17%
    13:00 +42°C° 0 mm 6 mps 740 mmHg 15%
    14:00 +44°C° 0 mm 6 mps 740 mmHg 14%
    15:00 +42°C° 0 mm 6 mps 740 mmHg 14%
    16:00 +42°C° 0 mm 6 mps 740 mmHg 14%
    17:00 +41°C° 0 mm 7 mps 740 mmHg 14%
    18:00 +40°C° 0 mm 7 mps 740 mmHg 16%
    19:00 +38°C° 0 mm 7 mps 741 mmHg 18%
    20:00 +36°C° 0 mm 7 mps 741 mmHg 20%
    21:00 +35°C° 0 mm 7 mps 741 mmHg 23%
    22:00 +34°C° 0 mm 7 mps 741 mmHg 25%
    23:00 +33°C° 0 mm 7 mps 741 mmHg 27%

    24 September, Sunday

    Time Temperature Precipitation Wind Pressure Humidity
    00:00 +32°C° 0 mm 6 mps 741 mmHg 28%
    01:00 +30°C° 0 mm 6 mps 741 mmHg 30%
    02:00 +29°C° 0 mm 6 mps 741 mmHg 31%
    03:00 +29°C° 0 mm 6 mps 741 mmHg 33%
    04:00 +28°C° 0 mm 6 mps 741 mmHg 34%
    05:00 +28°C° 0 mm 5 mps 741 mmHg 35%
    06:00 +29°C° 0 mm 6 mps 741 mmHg 34%
    07:00 +29°C° 0 mm 6 mps 742 mmHg 34%
    08:00 +30°C° 0 mm 6 mps 742 mmHg 33%
    09:00 +33°C° 0 mm 5 mps 742 mmHg 29%
    10:00 +35°C° 0 mm 5 mps 742 mmHg 25%
    11:00 +37°C° 0 mm 4 mps 742 mmHg 22%
    12:00 +38°C° 0 mm 4 mps 741 mmHg 19%
    13:00 +39°C° 0 mm 3 mps 740 mmHg 17%
    14:00 +40°C° 0 mm 2 mps 740 mmHg 15%
    15:00 +39°C° 0 mm 3 mps 740 mmHg 15%
    16:00 +39°C° 0 mm 3 mps 740 mmHg 14%
    17:00 +39°C° 0 mm 3 mps 740 mmHg 14%
    18:00 +38°C° 0 mm 4 mps 740 mmHg 15%
    19:00 +36°C° 0 mm 4 mps 741 mmHg 17%
    20:00 +35°C° 0 mm 4 mps 741 mmHg 18%
    21:00 +34°C° 0 mm 5 mps 741 mmHg 19%
    22:00 +33°C° 0 mm 5 mps 741 mmHg 20%
    23:00 +32°C° 0 mm 6 mps 741 mmHg 22%

    25 September, Monday

    Time Temperature Precipitation Wind Pressure Humidity
    00:00 +32°C° 0 mm 6 mps 741 mmHg 23%
    01:00 +30°C° 0 mm 6 mps 741 mmHg 24%
    02:00 +29°C° 0 mm 5 mps 740 mmHg 26%
    03:00 +29°C° 0 mm 5 mps 740 mmHg 27%
    04:00 +28°C° 0 mm 4 mps 741 mmHg 28%
    05:00 +28°C° 0 mm 4 mps 741 mmHg 29%
    06:00 +29°C° 0 mm 4 mps 741 mmHg 28%
    07:00 +30°C° 0 mm 4 mps 741 mmHg 26%
    08:00 +33°C° 0 mm 4 mps 742 mmHg 24%
    09:00 +34°C° 0 mm 4 mps 742 mmHg 22%
    10:00 +36°C° 0 mm 3 mps 741 mmHg 19%
    11:00 +38°C° 0 mm 3 mps 741 mmHg 17%
    12:00 +39°C° 0 mm 3 mps 741 mmHg 15%
    13:00 +40°C° 0 mm 3 mps 740 mmHg 14%
    14:00 +42°C° 0 mm 3 mps 739 mmHg 13%
    15:00 +42°C° 0 mm 3 mps 739 mmHg 13%
    16:00 +42°C° 0 mm 3 mps 739 mmHg 12%
    17:00 +42°C° 0 mm 4 mps 739 mmHg 12%
    18:00 +40°C° 0 mm 4 mps 740 mmHg 13%
    19:00 +38°C° 0 mm 4 mps 740 mmHg 14%
    20:00 +36°C° 0 mm 5 mps 741 mmHg 15%
    21:00 +36°C° 0 mm 5 mps 740 mmHg 15%
    22:00 +35°C° 0 mm 6 mps 740 mmHg 16%
    23:00 +34°C° 0 mm 6 mps 740 mmHg 17%
    Show more